Regional Weather Roundup
Issued by NWS

Home | Current Version | Previous Version | Text Only | Print | Product List | Glossary On
Versions: 1 2 3 4 5 6 7 8 9 10 11 12 13 14 15 16 17 18 19 20 21 22 23 24 25 26 27 28 29 30 31 32 33 34 35 36 37 38 39 40 41 42 43 44 45 46 47 48 49 50
000
ASUS43 KLMK 240210
RWRKY
KENTUCKY REGIONAL WEATHER ROUNDUP
NATIONAL WEATHER SERVICE LOUISVILLE KY
900 PM EST FRI FEB 23 2018

NOTE "FAIR" INDICATES FEW OR NO CLOUDS BELOW 12,000 FEET
WITH NO SIGNIFICANT WEATHER AND/OR OBSTRUCTIONS TO VISIBILITY.

KYZ001>023-026-027-061>063-070>075-240300-
WESTERN AND SOUTH CENTRAL KENTUCKY

CITY           SKY/WX    TMP DP  RH WIND       PRES   REMARKS
PADUCAH        FAIR      52  50  93 N7        30.21S
HENDERSON      FAIR      50  47  89 NW5       30.25S
OWENSBORO      MOCLDY    52  50  93 N7        30.24R
HOPKINSVILLE   LGT RAIN  57  57 100 E5        30.21R
BOWLING GREEN  CLOUDY    59  58  96 N5G17     30.20F
GLASGOW        MOCLDY   N/A N/A N/A NW7       30.20R
$$

KYZ024-025-028>034-038-045-046-053-240300-
NORTH CENTRAL KENTUCKY

CITY           SKY/WX    TMP DP  RH WIND       PRES   REMARKS
LOUISVILLE/SDF MOCLDY    58  56  93 CALM      30.22S
LOUISVILLE/LOU FAIR      56  56 100 CALM      30.22S
FORT KNOX      CLOUDY    56  56 100 CALM      30.22F
$$

KYZ035>037-039>044-047>052-055>060-089>105-240300-
NORTHEAST KENTUCKY

CITY           SKY/WX    TMP DP  RH WIND       PRES   REMARKS
LEXINGTON      CLOUDY    61  58  90 N8        30.22S
COVINGTON      CLOUDY    54  53  97 W7        30.20F
FRANKFORT      CLOUDY    61  57  87 CALM      30.21S
$$

KYZ054-064>069-076>088-106>120-240300-
SOUTHEAST KENTUCKY

CITY           SKY/WX    TMP DP  RH WIND       PRES   REMARKS
JACKSON        FAIR      71  54  54 CALM      30.22F
LONDON         CLOUDY    65  57  75 SW3       30.22F
SOMERSET       FAIR      64  54  68 CALM      30.22F
MIDDLESBORO    FAIR      59  55  85 CALM      30.24S
MONTICELLO     FAIR      60  55  83 NW9       30.23S
$$





USA.gov is the U.S. government's official web portal to all federal, state and local government web resources and services.